DW2584 Weather Reports


Display with metric or nautical units.
time (UTC)temp
F
wind
direction
speed
MPH
gust
MPH
rain 1hr
in
rain 24hr
in
rain mn
in
humidity
%
barometer
mb
20260505194512 53 245 12.0 24.0 0.00 0.00 0.00 53 1014.9
20260505193011 54 237 10.0 22.0 0.00 0.00 0.00 50 1015.0
20260505191512 53 235 13.0 25.0 0.00 0.00 0.00 49 1015.0
20260505190008 53 240 10.0 20.0 0.00 0.00 0.00 48 1015.0
20260505184507 54 195 7.0 17.0 0.00 0.00 0.00 43 1014.9
20260505183012 55 359 9.0 15.0 0.00 0.00 0.00 40 1015.0
20260505181506 54 359 7.0 11.0 0.00 0.00 0.00 40 1014.9
20260505180004 53 359 6.0 12.0 0.00 0.00 0.00 40 1015.0
20260505174503 53 172 4.0 13.0 0.00 0.00 0.00 40 1015.4
20260505173002 55 160 6.0 12.0 0.00 0.00 0.00 38 1015.4
20260505171501 54 140 2.0 8.0 0.00 0.00 0.00 39 1015.4
20260505170059 52 359 2.0 10.0 0.00 0.00 0.00 41 1015.4
20260505164559 51 230 8.0 13.0 0.00 0.00 0.00 42 1015.7
20260505163056 51 203 9.0 15.0 0.00 0.00 0.00 44 1015.8
20260505161554 50 251 10.0 14.0 0.00 0.00 0.00 44 1015.8
20260505153050 50 251 11.0 20.0 0.00 0.00 0.00 46 1016.0
20260505151547 51 245 11.0 15.0 0.00 0.00 0.00 45 1015.9
20260505124531 49 253 6.0 9.0 0.00 0.00 0.00 43 1016.1
20260505123043 49 262 3.0 8.0 0.00 0.00 0.00 41 1016.1
20260505121525 49 297 3.0 4.0 0.00 0.00 0.00 41 1015.8
20260505120021 49 330 2.0 6.0 0.00 0.00 0.00 40 1015.6
20260505114517 49 303 3.0 5.0 0.00 0.00 0.00 39 1015.6
20260505113015 50 263 4.0 6.0 0.00 0.00 0.00 38 1015.8
20260505111511 50 244 1.0 4.0 0.00 0.00 0.00 38 1015.8
20260505101504 52 272 6.0 11.0 0.00 0.00 0.00 34 1015.5
20260505100004 52 266 5.0 9.0 0.00 0.00 0.00 35 1015.5
20260505094501 52 272 5.0 12.0 0.00 0.00 0.00 34 1015.5
20260505093100 53 229 7.0 14.0 0.00 0.00 0.00 35 1015.5
20260505091557 53 274 4.0 10.0 0.00 0.00 0.00 34 1015.6
20260505090057 53 305 2.0 12.0 0.00 0.00 0.00 33 1015.7
20260505084601 53 329 3.0 6.0 0.00 0.00 0.00 33 1015.8
20260505083105 54 265 1.0 6.0 0.00 0.00 0.00 32 1016.1
20260505081548 54 261 4.0 7.0 0.00 0.00 0.00 31 1016.4
20260505080045 55 284 4.0 8.0 0.00 0.00 0.00 31 1016.3
20260505074544 55 271 2.0 8.0 0.00 0.00 0.00 30 1016.3
20260505073047 56 253 4.0 11.0 0.00 0.00 0.00 29 1016.1
20260505071538 56 281 6.0 12.0 0.00 0.00 0.00 29 1015.9
20260505070036 56 298 3.0 10.0 0.00 0.00 0.00 30 1016.0
20260505064546 57 269 5.0 8.0 0.00 0.00 0.00 30 1016.1
20260505063032 57 242 4.0 8.0 0.00 0.00 0.00 29 1016.0
20260505061529 58 251 6.0 12.0 0.00 0.00 0.00 28 1016.0
20260505060025 59 248 10.0 16.0 0.00 0.00 0.00 28 1016.0
20260505054542 59 272 9.0 17.0 0.00 0.00 0.00 28 1015.9
20260505053025 59 226 4.0 9.0 0.00 0.00 0.00 29 1015.8
20260505051524 59 266 6.0 10.0 0.00 0.00 0.00 29 1015.8
20260505041522 59 292 1.0 3.0 0.00 0.00 0.00 27 1016.0
20260505040022 59 292 1.0 4.0 0.00 0.00 0.00 26 1016.1
20260505034526 59 292 1.0 9.0 0.00 0.00 0.00 26 1016.0
20260505033021 60 279 2.0 10.0 0.00 0.00 0.00 25 1015.8
20260505031519 60 287 2.0 8.0 0.00 0.00 0.00 24 1015.7
20260505030036 61 278 6.0 10.0 0.00 0.00 0.00 23 1015.5
20260505024519 61 274 8.0 15.0 0.00 0.00 0.00 22 1015.3
20260505023019 62 295 10.0 19.0 0.00 0.00 0.00 21 1015.2
20260505021521 62 280 8.0 14.0 0.00 0.00 0.00 20 1015.1
20260505020019 63 283 12.0 18.0 0.00 0.00 0.00 19 1015.1
20260505014520 63 295 7.0 19.0 0.00 0.00 0.00 18 1015.0
20260505013019 64 264 11.0 23.0 0.00 0.00 0.00 18 1014.8
20260505011515 64 222 12.0 21.0 0.00 0.00 0.00 18 1014.7
20260505010015 64 262 14.0 23.0 0.00 0.00 0.00 17 1014.8
20260505004528 65 359 11.0 20.0 0.00 0.00 0.00 17 1014.9
20260505003013 65 280 12.0 17.0 0.00 0.00 0.00 17 1014.9
20260505001514 65 276 10.0 21.0 0.00 0.00 0.00 17 1014.9
20260505000016 65 246 13.0 21.0 0.00 0.00 0.00 17 1015.1
20260504234512 65 359 13.0 27.0 0.00 0.00 0.00 18 1015.2
20260504233011 65 250 13.0 25.0 0.00 0.00 0.00 19 1015.1
20260504231510 65 238 14.0 23.0 0.00 0.00 0.00 19 1015.0
20260504230009 65 359 9.0 18.0 0.00 0.00 0.00 19 1015.3
20260504224508 65 265 9.0 23.0 0.00 0.00 0.00 19 1015.3
20260504223007 65 254 8.0 16.0 0.00 0.00 0.00 19 1015.4
20260504221505 64 286 14.0 21.0 0.00 0.00 0.00 18 1015.5
20260504220004 65 270 14.0 23.0 0.00 0.00 0.00 17 1015.9
20260504214503 64 217 13.0 28.0 0.00 0.00 0.00 16 1015.8
20260504213009 65 359 16.0 25.0 0.00 0.00 0.00 16 1016.1
20260504211600 65 359 16.0 25.0 0.00 0.00 0.00 15 1016.0
20260504210058 64 214 15.0 30.0 0.00 0.00 0.00 16 1016.4
20260504204555 64 210 14.0 29.0 0.00 0.00 0.00 18 1016.6
20260504203052 63 268 14.0 28.0 0.00 0.00 0.00 19 1016.8
20260504201553 63 232 13.0 28.0 0.00 0.00 0.00 19 1017.0
20260504200050 63 249 11.0 23.0 0.00 0.00 0.00 19 1016.9